When you browse on this site, cookies collect data to enhance your experience and personalize the content and advertising you see.
Visit our Privacy Policy to learn more. By continuing to use the site, you agree to this use of cookies and data.
  • In Hungary
  • List of Countries
  • For 7 days
  • Water Temperature
  • Weather Map
  • News
  • Weather Widgets
  • user-avatar
    Login

    Hourly Weather Norki

    Today, 23 October, Wednesday

    Time Temperature Precipitation Wind Pressure Humidity
    00:00 +10°C° 0 mm 1 mps 762 mmHg 93%
    01:00 +10°C° 0 mm 1 mps 762 mmHg 93%
    02:00 +10°C° 0 mm 1 mps 762 mmHg 93%
    03:00 +10°C° 0 mm 1 mps 762 mmHg 95%
    04:00 +9°C° 0 mm 1 mps 762 mmHg 95%
    05:00 +9°C° 0 mm 1 mps 762 mmHg 95%
    06:00 +9°C° 0 mm 1 mps 762 mmHg 94%
    07:00 +10°C° 0 mm 1 mps 762 mmHg 89%
    08:00 +11°C° 0 mm 1 mps 762 mmHg 84%
    09:00 +13°C° 0 mm 1 mps 762 mmHg 78%
    10:00 +14°C° 0 mm 2 mps 762 mmHg 73%
    11:00 +15°C° 0 mm 2 mps 762 mmHg 68%
    12:00 +17°C° 0 mm 3 mps 762 mmHg 62%
    13:00 +17°C° 0 mm 3 mps 761 mmHg 62%
    14:00 +17°C° 0 mm 4 mps 761 mmHg 62%
    15:00 +17°C° 0 mm 4 mps 761 mmHg 61%
    16:00 +17°C° 0 mm 4 mps 761 mmHg 65%
    17:00 +16°C° 0 mm 3 mps 761 mmHg 68%
    18:00 +14°C° 0 mm 3 mps 761 mmHg 71%
    19:00 +14°C° 0.3 mm 3 mps 760 mmHg 75%
    20:00 +13°C° 0.3 mm 4 mps 760 mmHg 80%
    21:00 +13°C° 0.3 mm 4 mps 760 mmHg 84%
    22:00 +13°C° 0.2 mm 4 mps 760 mmHg 84%
    23:00 +13°C° 0.2 mm 4 mps 760 mmHg 84%

    Tomorrow, 24 October, Thursday

    Time Temperature Precipitation Wind Pressure Humidity
    00:00 +13°C° 0.2 mm 4 mps 760 mmHg 84%
    01:00 +13°C° 0.1 mm 4 mps 760 mmHg 87%
    02:00 +13°C° 0.1 mm 3 mps 760 mmHg 90%
    03:00 +13°C° 0.1 mm 3 mps 760 mmHg 92%
    04:00 +12°C° 0.2 mm 3 mps 760 mmHg 93%
    05:00 +13°C° 0.2 mm 2 mps 760 mmHg 93%
    06:00 +13°C° 0.2 mm 2 mps 760 mmHg 94%
    07:00 +14°C° 0 mm 2 mps 760 mmHg 90%
    08:00 +14°C° 0 mm 1 mps 761 mmHg 86%
    09:00 +15°C° 0 mm 1 mps 761 mmHg 82%
    10:00 +16°C° 0 mm 1 mps 761 mmHg 78%
    11:00 +18°C° 0 mm 1 mps 761 mmHg 73%
    12:00 +17°C° 0 mm 2 mps 761 mmHg 69%
    13:00 +18°C° 0 mm 1 mps 761 mmHg 68%
    14:00 +18°C° 0 mm 1 mps 761 mmHg 67%
    15:00 +18°C° 0 mm 1 mps 761 mmHg 67%
    16:00 +18°C° 0 mm 1 mps 761 mmHg 68%
    17:00 +16°C° 0 mm 1 mps 761 mmHg 70%
    18:00 +16°C° 0 mm 1 mps 761 mmHg 71%
    19:00 +15°C° 0 mm 1 mps 761 mmHg 72%
    20:00 +14°C° 0 mm 2 mps 762 mmHg 73%
    21:00 +14°C° 0 mm 2 mps 762 mmHg 74%
    22:00 +14°C° 0 mm 2 mps 762 mmHg 74%
    23:00 +14°C° 0 mm 2 mps 762 mmHg 74%

    Day after tomorrow, 25 October, Friday

    Time Temperature Precipitation Wind Pressure Humidity
    00:00 +14°C° 0 mm 2 mps 762 mmHg 74%
    01:00 +14°C° 0 mm 2 mps 762 mmHg 76%
    02:00 +14°C° 0 mm 2 mps 762 mmHg 77%
    03:00 +14°C° 0 mm 2 mps 762 mmHg 78%
    04:00 +13°C° 0 mm 2 mps 762 mmHg 80%
    05:00 +13°C° 0 mm 2 mps 762 mmHg 82%
    06:00 +13°C° 0 mm 1 mps 762 mmHg 84%
    07:00 +14°C° 0 mm 1 mps 762 mmHg 80%
    08:00 +14°C° 0 mm 2 mps 762 mmHg 76%
    09:00 +15°C° 0 mm 2 mps 763 mmHg 72%
    10:00 +16°C° 0 mm 2 mps 763 mmHg 66%
    11:00 +17°C° 0 mm 3 mps 763 mmHg 60%
    12:00 +19°C° 0 mm 3 mps 762 mmHg 54%
    13:00 +19°C° 0 mm 3 mps 762 mmHg 53%
    14:00 +19°C° 0 mm 3 mps 762 mmHg 51%
    15:00 +19°C° 0 mm 3 mps 762 mmHg 49%
    16:00 +17°C° 0 mm 2 mps 762 mmHg 53%
    17:00 +16°C° 0 mm 2 mps 762 mmHg 56%
    18:00 +15°C° 0 mm 1 mps 762 mmHg 60%
    19:00 +14°C° 0 mm 2 mps 762 mmHg 60%
    20:00 +14°C° 0 mm 2 mps 762 mmHg 60%
    21:00 +14°C° 0 mm 2 mps 763 mmHg 60%
    22:00 +13°C° 0 mm 2 mps 763 mmHg 61%
    23:00 +12°C° 0 mm 3 mps 763 mmHg 62%

    26 October, Saturday

    Time Temperature Precipitation Wind Pressure Humidity
    00:00 +11°C° 0 mm 3 mps 763 mmHg 63%
    01:00 +11°C° 0 mm 3 mps 763 mmHg 65%
    02:00 +11°C° 0 mm 3 mps 763 mmHg 67%
    03:00 +10°C° 0 mm 3 mps 763 mmHg 69%
    04:00 +10°C° 0 mm 3 mps 763 mmHg 68%
    05:00 +10°C° 0 mm 3 mps 763 mmHg 68%
    06:00 +10°C° 0 mm 3 mps 763 mmHg 67%
    07:00 +11°C° 0 mm 3 mps 763 mmHg 63%
    08:00 +12°C° 0 mm 3 mps 763 mmHg 59%
    09:00 +13°C° 0 mm 4 mps 764 mmHg 54%
    10:00 +14°C° 0 mm 4 mps 764 mmHg 50%
    11:00 +17°C° 0 mm 4 mps 764 mmHg 46%
    12:00 +17°C° 0 mm 5 mps 763 mmHg 43%
    13:00 +17°C° 0 mm 5 mps 763 mmHg 43%
    14:00 +17°C° 0 mm 5 mps 763 mmHg 43%
    15:00 +17°C° 0 mm 5 mps 762 mmHg 43%
    16:00 +17°C° 0 mm 4 mps 762 mmHg 47%
    17:00 +14°C° 0 mm 4 mps 762 mmHg 50%
    18:00 +13°C° 0 mm 3 mps 762 mmHg 54%
    19:00 +13°C° 0 mm 4 mps 762 mmHg 54%
    20:00 +12°C° 0 mm 4 mps 762 mmHg 55%
    21:00 +12°C° 0 mm 4 mps 762 mmHg 55%
    22:00 +12°C° 0 mm 4 mps 762 mmHg 56%
    23:00 +11°C° 0 mm 4 mps 762 mmHg 56%

    27 October, Sunday

    Time Temperature Precipitation Wind Pressure Humidity
    00:00 +11°C° 0 mm 4 mps 762 mmHg 56%
    01:00 +11°C° 0 mm 4 mps 761 mmHg 57%
    02:00 +11°C° 0 mm 4 mps 761 mmHg 58%
    03:00 +10°C° 0 mm 4 mps 761 mmHg 59%
    04:00 +10°C° 0 mm 4 mps 761 mmHg 60%
    05:00 +10°C° 0 mm 4 mps 761 mmHg 61%
    06:00 +8°C° 0 mm 4 mps 760 mmHg 62%
    07:00 +11°C° 0 mm 4 mps 760 mmHg 59%
    08:00 +12°C° 0 mm 5 mps 760 mmHg 55%
    09:00 +13°C° 0 mm 5 mps 760 mmHg 52%
    10:00 +14°C° 0 mm 6 mps 760 mmHg 48%
    11:00 +16°C° 0 mm 6 mps 760 mmHg 43%
    12:00 +17°C° 0 mm 6 mps 759 mmHg 39%
    13:00 +17°C° 0 mm 6 mps 759 mmHg 38%
    14:00 +17°C° 0 mm 6 mps 758 mmHg 38%
    15:00 +17°C° 0 mm 6 mps 758 mmHg 37%
    16:00 +16°C° 0 mm 6 mps 758 mmHg 40%
    17:00 +15°C° 0 mm 6 mps 757 mmHg 42%
    18:00 +14°C° 0 mm 6 mps 757 mmHg 45%
    19:00 +14°C° 0 mm 6 mps 757 mmHg 46%
    20:00 +14°C° 0 mm 6 mps 757 mmHg 47%
    21:00 +13°C° 0 mm 6 mps 757 mmHg 48%
    22:00 +13°C° 0 mm 6 mps 756 mmHg 50%
    23:00 +12°C° 0 mm 5 mps 756 mmHg 52%

    28 October, Monday

    Time Temperature Precipitation Wind Pressure Humidity
    00:00 +12°C° 0 mm 5 mps 756 mmHg 54%
    01:00 +12°C° 0 mm 5 mps 756 mmHg 56%
    02:00 +10°C° 0 mm 5 mps 756 mmHg 58%
    03:00 +10°C° 0 mm 5 mps 755 mmHg 60%
    04:00 +10°C° 0 mm 5 mps 755 mmHg 63%
    05:00 +9°C° 0 mm 5 mps 755 mmHg 66%
    06:00 +10°C° 0 mm 4 mps 755 mmHg 69%
    07:00 +11°C° 0 mm 4 mps 755 mmHg 67%
    08:00 +12°C° 0 mm 5 mps 755 mmHg 65%
    09:00 +13°C° 0 mm 5 mps 755 mmHg 63%
    10:00 +14°C° 0 mm 5 mps 755 mmHg 59%
    11:00 +15°C° 0 mm 5 mps 755 mmHg 55%
    12:00 +17°C° 0 mm 5 mps 755 mmHg 51%
    13:00 +17°C° 0 mm 5 mps 755 mmHg 50%
    14:00 +17°C° 0 mm 5 mps 754 mmHg 49%
    15:00 +19°C° 0 mm 5 mps 754 mmHg 48%
    16:00 +17°C° 0 mm 4 mps 754 mmHg 52%
    17:00 +15°C° 0 mm 4 mps 754 mmHg 57%
    18:00 +13°C° 0 mm 4 mps 754 mmHg 61%
    19:00 +13°C° 0 mm 4 mps 754 mmHg 63%
    20:00 +13°C° 0 mm 4 mps 754 mmHg 64%
    21:00 +12°C° 0 mm 4 mps 754 mmHg 66%
    22:00 +12°C° 0 mm 4 mps 754 mmHg 67%
    23:00 +12°C° 0 mm 4 mps 754 mmHg 69%

    29 October, Tuesday

    Time Temperature Precipitation Wind Pressure Humidity
    00:00 +11°C° 0 mm 4 mps 754 mmHg 70%
    01:00 +11°C° 0 mm 4 mps 754 mmHg 72%
    02:00 +11°C° 0 mm 4 mps 754 mmHg 74%
    03:00 +11°C° 0 mm 4 mps 753 mmHg 75%
    04:00 +10°C° 0 mm 4 mps 753 mmHg 77%
    05:00 +10°C° 0 mm 4 mps 753 mmHg 79%
    06:00 +10°C° 0 mm 3 mps 753 mmHg 80%
    07:00 +11°C° 0 mm 4 mps 753 mmHg 76%
    08:00 +12°C° 0 mm 4 mps 754 mmHg 71%
    09:00 +13°C° 0 mm 4 mps 754 mmHg 66%
    10:00 +14°C° 0 mm 3 mps 754 mmHg 62%
    11:00 +16°C° 0 mm 3 mps 754 mmHg 58%
    12:00 +17°C° 0 mm 3 mps 754 mmHg 53%
    13:00 +17°C° 0 mm 3 mps 754 mmHg 53%
    14:00 +17°C° 0 mm 3 mps 753 mmHg 53%
    15:00 +17°C° 0 mm 3 mps 753 mmHg 53%
    16:00 +16°C° 0 mm 2 mps 753 mmHg 58%
    17:00 +15°C° 0 mm 2 mps 753 mmHg 62%
    18:00 +13°C° 0 mm 2 mps 753 mmHg 67%
    19:00 +13°C° 0 mm 2 mps 753 mmHg 69%
    20:00 +13°C° 0 mm 2 mps 753 mmHg 70%
    21:00 +12°C° 0 mm 2 mps 752 mmHg 72%
    22:00 +12°C° 0 mm 2 mps 752 mmHg 74%
    23:00 +11°C° 0 mm 3 mps 752 mmHg 76%
    Show more